Previsão horária em Barnukovka

Hoje, 27 Outubro, Terça-feira

Tempo Temperatura Precipitação Vento Pressão Humidade
00:00 +1°C° 0 mm 2 m/s 760 mmHg 81%
01:00 +1°C° 0 mm 2 m/s 760 mmHg 82%
02:00 -1°C° 0 mm 2 m/s 761 mmHg 83%
03:00 -1°C° 0 mm 2 m/s 761 mmHg 84%
04:00 -2°C° 0 mm 2 m/s 762 mmHg 84%
05:00 0°C° 0 mm 1 m/s 762 mmHg 83%
06:00 0°C° 0 mm 1 m/s 762 mmHg 83%
07:00 +1°C° 0 mm 1 m/s 763 mmHg 78%
08:00 +1°C° 0 mm 2 m/s 763 mmHg 73%
09:00 +1°C° 0 mm 2 m/s 764 mmHg 68%
10:00 +2°C° 0 mm 2 m/s 764 mmHg 62%
11:00 +4°C° 0 mm 1 m/s 764 mmHg 57%
12:00 +5°C° 0 mm 1 m/s 764 mmHg 51%
13:00 +5°C° 0 mm 1 m/s 764 mmHg 50%
14:00 +6°C° 0 mm 1 m/s 764 mmHg 48%
15:00 +6°C° 0 mm 1 m/s 765 mmHg 47%
16:00 +5°C° 0 mm 1 m/s 764 mmHg 52%
17:00 +4°C° 0 mm 1 m/s 764 mmHg 56%
18:00 +3°C° 0 mm 1 m/s 764 mmHg 61%
19:00 +2°C° 0 mm 1 m/s 764 mmHg 63%
20:00 +2°C° 0 mm 1 m/s 765 mmHg 64%
21:00 +2°C° 0 mm 1 m/s 765 mmHg 66%
22:00 +1°C° 0 mm 1 m/s 765 mmHg 67%
23:00 +1°C° 0 mm 1 m/s 765 mmHg 69%

Amanhã, 28 Outubro, Quarta-feira

Tempo Temperatura Precipitação Vento Pressão Humidade
00:00 +1°C° 0 mm 1 m/s 765 mmHg 70%
01:00 +1°C° 0 mm 1 m/s 765 mmHg 71%
02:00 +1°C° 0 mm 1 m/s 765 mmHg 71%
03:00 0°C° 0 mm 1 m/s 765 mmHg 72%
04:00 0°C° 0 mm 1 m/s 765 mmHg 73%
05:00 0°C° 0 mm 1 m/s 765 mmHg 74%
06:00 0°C° 0 mm 1 m/s 765 mmHg 74%
07:00 +1°C° 0 mm 1 m/s 765 mmHg 70%
08:00 +1°C° 0 mm 2 m/s 765 mmHg 65%
09:00 +2°C° 0 mm 2 m/s 765 mmHg 60%
10:00 +3°C° 0 mm 2 m/s 765 mmHg 56%
11:00 +3°C° 0 mm 3 m/s 765 mmHg 51%
12:00 +4°C° 0 mm 3 m/s 765 mmHg 47%
13:00 +4°C° 0 mm 3 m/s 764 mmHg 47%
14:00 +4°C° 0 mm 3 m/s 764 mmHg 48%
15:00 +5°C° 0 mm 3 m/s 764 mmHg 48%
16:00 +3°C° 0 mm 3 m/s 764 mmHg 52%
17:00 +3°C° 0 mm 2 m/s 763 mmHg 57%
18:00 +2°C° 0 mm 2 m/s 763 mmHg 61%
19:00 +2°C° 0 mm 2 m/s 763 mmHg 63%
20:00 +1°C° 0 mm 2 m/s 764 mmHg 65%
21:00 +1°C° 0 mm 2 m/s 764 mmHg 67%
22:00 +1°C° 0 mm 2 m/s 763 mmHg 68%
23:00 -1°C° 0 mm 2 m/s 763 mmHg 70%

Depois de amanhã, 29 Outubro, Quinta-feira

Tempo Temperatura Precipitação Vento Pressão Humidade
00:00 +1°C° 0 mm 1 m/s 763 mmHg 71%
01:00 +1°C° 0 mm 1 m/s 763 mmHg 72%
02:00 +1°C° 0 mm 1 m/s 763 mmHg 73%
03:00 +1°C° 0 mm 1 m/s 763 mmHg 73%
04:00 +1°C° 0 mm 1 m/s 763 mmHg 74%
05:00 +1°C° 0 mm 1 m/s 763 mmHg 74%
06:00 -2°C° 0 mm 2 m/s 762 mmHg 74%
07:00 -1°C° 0 mm 2 m/s 762 mmHg 70%
08:00 +1°C° 0 mm 2 m/s 762 mmHg 65%
09:00 +1°C° 0 mm 3 m/s 762 mmHg 61%
10:00 +3°C° 0 mm 3 m/s 762 mmHg 57%
11:00 +4°C° 0 mm 4 m/s 762 mmHg 53%
12:00 +5°C° 0 mm 4 m/s 762 mmHg 49%
13:00 +6°C° 0 mm 4 m/s 761 mmHg 49%
14:00 +6°C° 0 mm 4 m/s 761 mmHg 50%
15:00 +6°C° 0 mm 4 m/s 760 mmHg 50%
16:00 +5°C° 0 mm 4 m/s 760 mmHg 54%
17:00 +4°C° 0 mm 3 m/s 760 mmHg 58%
18:00 +3°C° 0 mm 3 m/s 760 mmHg 62%
19:00 +3°C° 0 mm 3 m/s 760 mmHg 65%
20:00 +3°C° 0 mm 3 m/s 759 mmHg 68%
21:00 +3°C° 0 mm 3 m/s 759 mmHg 71%
22:00 +3°C° 0 mm 3 m/s 759 mmHg 72%
23:00 +3°C° 0 mm 3 m/s 759 mmHg 73%

30 Outubro, Sexta-feira

Tempo Temperatura Precipitação Vento Pressão Humidade
00:00 +4°C° 0 mm 3 m/s 759 mmHg 74%
01:00 +4°C° 0 mm 3 m/s 758 mmHg 74%
02:00 +4°C° 0 mm 3 m/s 758 mmHg 75%
03:00 +4°C° 0 mm 3 m/s 758 mmHg 75%
04:00 +3°C° 0 mm 3 m/s 758 mmHg 76%
05:00 +3°C° 0 mm 3 m/s 757 mmHg 77%
06:00 +1°C° 0 mm 4 m/s 757 mmHg 78%
07:00 +3°C° 0 mm 4 m/s 757 mmHg 74%
08:00 +3°C° 0 mm 4 m/s 757 mmHg 69%
09:00 +4°C° 0 mm 4 m/s 757 mmHg 65%
10:00 +5°C° 0 mm 4 m/s 756 mmHg 61%
11:00 +6°C° 0 mm 5 m/s 756 mmHg 57%
12:00 +7°C° 0 mm 5 m/s 756 mmHg 53%
13:00 +7°C° 0 mm 5 m/s 756 mmHg 53%
14:00 +7°C° 0 mm 5 m/s 755 mmHg 53%
15:00 +8°C° 0 mm 5 m/s 755 mmHg 53%
16:00 +7°C° 0 mm 5 m/s 755 mmHg 56%
17:00 +6°C° 0 mm 5 m/s 755 mmHg 60%
18:00 +5°C° 0 mm 5 m/s 755 mmHg 63%
19:00 +5°C° 0 mm 4 m/s 755 mmHg 63%
20:00 +5°C° 0 mm 4 m/s 754 mmHg 63%
21:00 +5°C° 0 mm 4 m/s 754 mmHg 63%
22:00 +5°C° 0 mm 4 m/s 754 mmHg 62%
23:00 +5°C° 0 mm 4 m/s 754 mmHg 61%

31 Outubro, Sábado

Tempo Temperatura Precipitação Vento Pressão Humidade
00:00 +5°C° 0 mm 4 m/s 753 mmHg 60%
01:00 +5°C° 0 mm 4 m/s 753 mmHg 60%
02:00 +5°C° 0 mm 4 m/s 753 mmHg 61%
03:00 +5°C° 0 mm 4 m/s 753 mmHg 61%
04:00 +4°C° 0 mm 3 m/s 753 mmHg 62%
05:00 +4°C° 0 mm 3 m/s 753 mmHg 63%
06:00 +3°C° 0 mm 3 m/s 753 mmHg 65%
07:00 +4°C° 0 mm 3 m/s 752 mmHg 60%
08:00 +5°C° 0 mm 4 m/s 752 mmHg 56%
09:00 +6°C° 0 mm 4 m/s 752 mmHg 52%
10:00 +6°C° 0 mm 4 m/s 753 mmHg 51%
11:00 +7°C° 0 mm 4 m/s 753 mmHg 51%
12:00 +8°C° 0 mm 4 m/s 753 mmHg 51%
13:00 +8°C° 0 mm 4 m/s 753 mmHg 53%
14:00 +10°C° 0 mm 4 m/s 753 mmHg 56%
15:00 +10°C° 0 mm 3 m/s 753 mmHg 58%
16:00 +10°C° 0 mm 3 m/s 753 mmHg 62%
17:00 +9°C° 0 mm 3 m/s 753 mmHg 66%
18:00 +9°C° 0 mm 2 m/s 754 mmHg 70%
19:00 +9°C° 0 mm 2 m/s 754 mmHg 70%
20:00 +9°C° 0 mm 2 m/s 754 mmHg 71%
21:00 +9°C° 0 mm 2 m/s 754 mmHg 71%
22:00 +10°C° 0 mm 1 m/s 754 mmHg 72%
23:00 +10°C° 0 mm 1 m/s 754 mmHg 73%

1 Novembro, Domingo

Tempo Temperatura Precipitação Vento Pressão Humidade
00:00 +10°C° 0 mm 1 m/s 755 mmHg 74%
01:00 +10°C° 0 mm 1 m/s 755 mmHg 76%
02:00 +9°C° 0 mm 1 m/s 755 mmHg 79%
03:00 +9°C° 0 mm 1 m/s 755 mmHg 82%
04:00 +8°C° 0 mm 0 m/s 755 mmHg 83%
05:00 +8°C° 0 mm 0 m/s 755 mmHg 84%
06:00 +8°C° 0 mm 0 m/s 756 mmHg 85%
07:00 +9°C° 0 mm 0 m/s 756 mmHg 84%
08:00 +9°C° 0 mm 0 m/s 756 mmHg 82%
09:00 +10°C° 0 mm 0 m/s 757 mmHg 81%
10:00 +10°C° 0 mm 0 m/s 757 mmHg 79%
11:00 +11°C° 0 mm 0 m/s 757 mmHg 78%
12:00 +12°C° 0 mm 1 m/s 758 mmHg 76%
13:00 +12°C° 0 mm 1 m/s 758 mmHg 77%
14:00 +12°C° 0 mm 1 m/s 758 mmHg 79%
15:00 +12°C° 0 mm 1 m/s 758 mmHg 80%
16:00 +11°C° 0.1 mm 1 m/s 758 mmHg 81%
17:00 +11°C° 0.1 mm 1 m/s 759 mmHg 83%
18:00 +11°C° 0.1 mm 1 m/s 759 mmHg 85%
19:00 +9°C° 0.1 mm 2 m/s 759 mmHg 85%
20:00 +9°C° 0.1 mm 2 m/s 759 mmHg 86%
21:00 +9°C° 0.1 mm 2 m/s 759 mmHg 86%
22:00 +9°C° 0 mm 2 m/s 760 mmHg 87%
23:00 +8°C° 0 mm 2 m/s 760 mmHg 89%
Mostrar mais